• In Czech Republic
  • List of Countries
  • For 7 days
  • Water Temperature
  • Satellite Maps
  • Weather Map
  • Weather Widgets
  • user-avatar
    Login

    Hourly Weather Canberra

    Today, 18 February, Sunday

    Time Temperature Precipitation Wind Pressure Humidity
    00:00 +18°C° 0 mm 1 mps 707 mmHg 64%
    01:00 +18°C° 0 mm 1 mps 707 mmHg 68%
    02:00 +18°C° 0 mm 1 mps 707 mmHg 69%
    03:00 +16°C° 0 mm 1 mps 707 mmHg 69%
    04:00 +16°C° 0 mm 1 mps 706 mmHg 68%
    05:00 +18°C° 0 mm 1 mps 707 mmHg 63%
    06:00 +19°C° 0 mm 1 mps 707 mmHg 59%
    07:00 +18°C° 0 mm 0 mps 707 mmHg 54%
    08:00 +24°C° 0 mm 1 mps 708 mmHg 44%
    09:00 +27°C° 0 mm 1 mps 708 mmHg 33%
    10:00 +31°C° 0 mm 1 mps 708 mmHg 28%
    11:00 +32°C° 0 mm 1 mps 708 mmHg 24%
    12:00 +34°C° 0 mm 2 mps 708 mmHg 20%
    13:00 +36°C° 0 mm 2 mps 707 mmHg 17%
    14:00 +36°C° 0 mm 2 mps 707 mmHg 17%
    15:00 +36°C° 0 mm 2 mps 707 mmHg 17%
    16:00 +36°C° 0 mm 2 mps 706 mmHg 17%
    17:00 +32°C° 0 mm 2 mps 706 mmHg 27%
    18:00 +29°C° 0 mm 2 mps 706 mmHg 36%
    19:00 +26°C° 0 mm 2 mps 706 mmHg 46%
    20:00 +25°C° 0 mm 2 mps 707 mmHg 60%
    21:00 +23°C° 0 mm 2 mps 707 mmHg 73%
    22:00 +21°C° 0 mm 3 mps 707 mmHg 86%
    23:00 +20°C° 0.1 mm 3 mps 707 mmHg 88%

    Tomorrow, 19 February, Monday

    Time Temperature Precipitation Wind Pressure Humidity
    00:00 +20°C° 0.1 mm 3 mps 707 mmHg 91%
    01:00 +20°C° 0.1 mm 3 mps 707 mmHg 93%
    02:00 +20°C° 0.1 mm 3 mps 707 mmHg 92%
    03:00 +20°C° 0.1 mm 3 mps 706 mmHg 91%
    04:00 +20°C° 0.1 mm 3 mps 706 mmHg 90%
    05:00 +20°C° 0.3 mm 3 mps 707 mmHg 90%
    06:00 +20°C° 0.3 mm 3 mps 707 mmHg 89%
    07:00 +20°C° 0.3 mm 3 mps 707 mmHg 88%
    08:00 +21°C° 0.1 mm 4 mps 708 mmHg 84%
    09:00 +22°C° 0.1 mm 4 mps 708 mmHg 79%
    10:00 +22°C° 0.1 mm 4 mps 708 mmHg 74%
    11:00 +23°C° 0.3 mm 4 mps 708 mmHg 72%
    12:00 +23°C° 0.3 mm 4 mps 708 mmHg 69%
    13:00 +25°C° 0.3 mm 5 mps 708 mmHg 67%
    14:00 +23°C° 0.2 mm 5 mps 708 mmHg 66%
    15:00 +23°C° 0.2 mm 5 mps 708 mmHg 65%
    16:00 +22°C° 0.2 mm 6 mps 708 mmHg 64%
    17:00 +21°C° 0.1 mm 5 mps 708 mmHg 69%
    18:00 +20°C° 0.1 mm 5 mps 709 mmHg 73%
    19:00 +19°C° 0.1 mm 5 mps 709 mmHg 77%
    20:00 +19°C° 0.3 mm 6 mps 709 mmHg 79%
    21:00 +17°C° 0.3 mm 6 mps 710 mmHg 80%
    22:00 +17°C° 0.3 mm 6 mps 710 mmHg 82%
    23:00 +16°C° 0.1 mm 6 mps 710 mmHg 83%

    Day after tomorrow, 20 February, Tuesday

    Time Temperature Precipitation Wind Pressure Humidity
    00:00 +16°C° 0.1 mm 6 mps 710 mmHg 83%
    01:00 +15°C° 0.1 mm 5 mps 710 mmHg 84%
    02:00 +15°C° 0 mm 5 mps 710 mmHg 83%
    03:00 +14°C° 0 mm 5 mps 710 mmHg 83%
    04:00 +14°C° 0 mm 5 mps 710 mmHg 82%
    05:00 +14°C° 0 mm 5 mps 711 mmHg 80%
    06:00 +13°C° 0 mm 5 mps 711 mmHg 78%
    07:00 +13°C° 0 mm 5 mps 712 mmHg 75%
    08:00 +15°C° 0 mm 5 mps 712 mmHg 66%
    09:00 +17°C° 0 mm 5 mps 713 mmHg 57%
    10:00 +19°C° 0 mm 5 mps 713 mmHg 49%
    11:00 +20°C° 0 mm 5 mps 713 mmHg 46%
    12:00 +22°C° 0 mm 5 mps 712 mmHg 44%
    13:00 +23°C° 0 mm 5 mps 712 mmHg 42%
    14:00 +22°C° 0 mm 5 mps 712 mmHg 44%
    15:00 +22°C° 0 mm 5 mps 711 mmHg 46%
    16:00 +22°C° 0 mm 5 mps 711 mmHg 47%
    17:00 +20°C° 0 mm 4 mps 711 mmHg 55%
    18:00 +18°C° 0 mm 4 mps 711 mmHg 63%
    19:00 +15°C° 0 mm 4 mps 711 mmHg 70%
    20:00 +14°C° 0 mm 3 mps 711 mmHg 76%
    21:00 +12°C° 0 mm 3 mps 712 mmHg 82%
    22:00 +11°C° 0 mm 3 mps 712 mmHg 88%
    23:00 +12°C° 0 mm 2 mps 712 mmHg 90%

    21 February, Wednesday

    Time Temperature Precipitation Wind Pressure Humidity
    00:00 +10°C° 0 mm 2 mps 712 mmHg 92%
    01:00 +10°C° 0 mm 2 mps 712 mmHg 94%
    02:00 +10°C° 0 mm 2 mps 711 mmHg 94%
    03:00 +9°C° 0 mm 2 mps 711 mmHg 94%
    04:00 +10°C° 0 mm 1 mps 711 mmHg 94%
    05:00 +11°C° 0 mm 1 mps 711 mmHg 89%
    06:00 +12°C° 0 mm 1 mps 712 mmHg 85%
    07:00 +13°C° 0 mm 1 mps 712 mmHg 80%
    08:00 +16°C° 0 mm 1 mps 712 mmHg 67%
    09:00 +18°C° 0 mm 2 mps 712 mmHg 54%
    10:00 +21°C° 0 mm 2 mps 713 mmHg 41%
    11:00 +24°C° 0 mm 2 mps 712 mmHg 36%
    12:00 +26°C° 0 mm 2 mps 712 mmHg 31%
    13:00 +27°C° 0 mm 2 mps 711 mmHg 26%
    14:00 +27°C° 0 mm 2 mps 711 mmHg 27%
    15:00 +28°C° 0 mm 2 mps 710 mmHg 27%
    16:00 +28°C° 0 mm 3 mps 710 mmHg 28%
    17:00 +25°C° 0 mm 3 mps 710 mmHg 37%
    18:00 +22°C° 0 mm 3 mps 710 mmHg 45%
    19:00 +20°C° 0 mm 3 mps 710 mmHg 54%
    20:00 +18°C° 0 mm 2 mps 710 mmHg 63%
    21:00 +17°C° 0 mm 2 mps 711 mmHg 72%
    22:00 +15°C° 0 mm 2 mps 711 mmHg 82%
    23:00 +15°C° 0 mm 2 mps 711 mmHg 84%

    22 February, Thursday

    Time Temperature Precipitation Wind Pressure Humidity
    00:00 +14°C° 0 mm 1 mps 711 mmHg 87%
    01:00 +14°C° 0 mm 1 mps 711 mmHg 90%
    02:00 +14°C° 0 mm 1 mps 710 mmHg 90%
    03:00 +13°C° 0 mm 1 mps 710 mmHg 90%
    04:00 +13°C° 0 mm 1 mps 710 mmHg 90%
    05:00 +14°C° 0 mm 1 mps 710 mmHg 85%
    06:00 +15°C° 0 mm 1 mps 711 mmHg 79%
    07:00 +15°C° 0 mm 1 mps 711 mmHg 74%
    08:00 +20°C° 0 mm 1 mps 712 mmHg 60%
    09:00 +23°C° 0 mm 1 mps 712 mmHg 46%
    10:00 +26°C° 0 mm 1 mps 712 mmHg 33%
    11:00 +28°C° 0 mm 1 mps 712 mmHg 29%
    12:00 +30°C° 0 mm 1 mps 712 mmHg 26%
    13:00 +32°C° 0 mm 1 mps 711 mmHg 22%
    14:00 +32°C° 0 mm 1 mps 711 mmHg 23%
    15:00 +31°C° 0 mm 2 mps 711 mmHg 23%
    16:00 +31°C° 0 mm 2 mps 710 mmHg 24%
    17:00 +28°C° 0 mm 2 mps 710 mmHg 31%
    18:00 +26°C° 0 mm 2 mps 710 mmHg 39%
    19:00 +24°C° 0 mm 2 mps 710 mmHg 46%
    20:00 +21°C° 0 mm 2 mps 710 mmHg 55%
    21:00 +20°C° 0 mm 2 mps 710 mmHg 65%
    22:00 +19°C° 0 mm 1 mps 711 mmHg 74%
    23:00 +18°C° 0 mm 1 mps 710 mmHg 77%

    23 February, Friday

    Time Temperature Precipitation Wind Pressure Humidity
    00:00 +18°C° 0 mm 1 mps 710 mmHg 81%
    01:00 +16°C° 0 mm 1 mps 710 mmHg 84%
    02:00 +16°C° 0 mm 1 mps 710 mmHg 83%
    03:00 +16°C° 0 mm 1 mps 710 mmHg 82%
    04:00 +16°C° 0 mm 1 mps 709 mmHg 81%
    05:00 +18°C° 0 mm 1 mps 710 mmHg 78%
    06:00 +18°C° 0 mm 1 mps 710 mmHg 74%
    07:00 +19°C° 0 mm 1 mps 711 mmHg 71%
    08:00 +21°C° 0 mm 1 mps 711 mmHg 60%
    09:00 +23°C° 0 mm 1 mps 711 mmHg 49%
    10:00 +26°C° 0 mm 2 mps 711 mmHg 39%
    11:00 +28°C° 0 mm 2 mps 711 mmHg 34%
    12:00 +29°C° 0 mm 2 mps 711 mmHg 29%
    13:00 +31°C° 0 mm 2 mps 711 mmHg 25%
    14:00 +31°C° 0 mm 2 mps 710 mmHg 24%
    15:00 +31°C° 0 mm 2 mps 710 mmHg 23%
    16:00 +31°C° 0 mm 2 mps 709 mmHg 23%
    17:00 +29°C° 0 mm 2 mps 709 mmHg 28%
    18:00 +27°C° 0 mm 1 mps 709 mmHg 34%
    19:00 +25°C° 0 mm 1 mps 709 mmHg 39%
    20:00 +24°C° 0 mm 1 mps 709 mmHg 44%
    21:00 +23°C° 0 mm 1 mps 709 mmHg 49%
    22:00 +22°C° 0 mm 1 mps 709 mmHg 54%
    23:00 +22°C° 0 mm 1 mps 708 mmHg 56%
    Show more